Theta_e
331 331 332 331 332 333 333 332 332 332 332 332 332 333 333 333 333 333 333 332 333 334 333 334 334 333 333 333 334 333 333 332 332 332 331 331 331 331 331 330 330 330
331 331 332 331 332 333 332 332 332 331 332 332 332 333 333 333 332 333 333 333 334 334 334 334 334 333 333 333 333 333 332 332 332 332 332 331 331 331 331 330 330 331
330 330 331 331 331 332 332 332 331 331 332 332 333 333 332 332 331 332 333 334 334 334 334 334 333 333 333 333 332 332 332 332 332 332 332 331 331 330 331 330 330 331
329 329 330 331 331 332 332 332 331 332 332 332 332 332 332 332 332 331 332 333 333 333 333 333 333 333 333 332 333 333 332 333 332 332 332 331 330 330 330 331 331 330
330 328 329 330 331 332 332 332 331 331 332 332 331 332 332 332 332 331 330 332 332 332 332 332 331 332 333 332 333 332 332 333 332 332 332 331 330 330 330 331 331 330
331 330 330 330 330 331 332 331 331 331 332 332 331 332 331 331 331 330 329 330 332 331 330 330 330 331 332 332 332 332 332 332 332 331 331 331 331 331 331 331 331 330
332 332 331 330 329 330 331 331 331 332 332 331 331 331 331 330 329 328 329 330 331 330 330 329 329 329 330 331 331 331 331 331 331 331 331 331 331 331 331 331 331 330
332 333 332 329 327 328 330 331 331 332 332 331 331 330 330 330 328 328 329 330 330 329 329 329 329 328 329 330 330 330 330 331 330 330 330 331 331 331 330 331 331 331
333 333 331 329 327 328 330 331 331 331 331 331 330 330 329 328 328 328 329 330 329 329 329 328 329 328 328 328 328 329 330 330 329 329 330 331 331 330 330 331 331 331
332 331 329 328 328 328 330 331 330 330 330 330 330 329 328 327 327 328 329 329 329 328 328 328 328 328 328 328 328 328 329 329 329 329 330 330 329 329 330 330 330 330
331 330 328 328 328 328 329 330 329 329 329 330 329 328 328 327 327 328 328 328 328 328 328 328 328 328 328 328 328 328 328 328 328 329 329 329 329 329 329 329 329 330
329 329 328 327 327 328 329 328 328 328 329 329 329 327 326 326 326 327 326 326 327 328 328 327 327 327 327 327 327 327 327 327 328 328 328 329 329 329 329 329 329 330
328 329 328 327 327 327 327 327 327 327 328 328 327 326 326 326 326 325 326 326 326 326 327 327 326 326 326 326 327 327 326 326 326 327 328 329 329 329 329 329 329 329
327 328 328 327 327 326 325 327 327 326 326 326 326 325 325 326 324 324 325 326 325 326 326 326 326 325 325 325 325 325 325 325 326 326 328 329 329 329 329 329 328 327
326 327 327 327 327 326 325 326 326 326 325 325 325 324 325 325 323 324 325 325 325 325 325 325 324 324 324 324 324 324 324 325 326 327 328 329 329 328 328 328 326 324
326 326 327 327 326 326 325 325 326 325 325 324 324 324 324 324 323 323 324 324 324 324 324 323 323 323 322 323 323 323 325 326 327 328 328 328 328 328 327 325 323 322
326 326 326 326 325 325 325 325 325 325 324 324 324 324 325 325 323 322 323 323 324 323 322 322 322 321 321 322 322 323 324 326 326 327 328 327 327 326 324 322 322 321
325 325 325 325 325 325 325 325 325 325 324 323 323 324 325 324 322 322 322 322 322 322 321 321 320 321 321 322 322 323 324 324 325 327 327 327 326 325 322 321 320 319
324 324 324 324 324 324 324 324 323 323 322 322 323 323 322 321 321 321 320 320 321 320 320 320 320 321 321 322 322 322 323 324 325 326 327 326 325 323 320 319 318 318
323 323 323 323 323 323 323 322 322 321 320 320 321 321 320 319 319 319 319 319 319 320 320 320 320 321 321 321 321 321 322 323 324 325 325 324 322 320 318 318 318 319
321 321 321 321 321 321 321 319 318 318 316 316 317 318 318 318 318 318 318 318 318 319 319 320 320 320 320 321 320 320 321 322 323 323 322 320 318 318 318 318 319 319
320 320 320 320 319 319 318 317 315 315 314 313 314 315 315 316 317 316 317 316 317 318 318 319 320 320 320 320 320 320 321 321 322 321 319 317 318 318 318 319 319 319
318 320 319 318 318 317 316 315 314 313 313 312 312 313 313 314 315 315 315 315 316 316 316 317 318 320 320 320 320 320 320 320 320 319 318 318 318 318 319 319 319 319
316 318 318 317 316 315 314 314 313 313 312 312 312 312 312 313 313 313 314 315 315 315 315 315 317 318 319 319 319 319 319 319 319 318 318 319 319 318 319 319 318 318
313 315 316 315 313 313 312 311 311 311 311 310 309 310 312 312 312 313 313 313 315 316 316 316 318 319 318 318 318 318 317 318 317 317 318 319 318 318 318 317 316 316
312 312 312 312 311 311 310 310 310 309 310 308 306 306 309 310 311 311 311 312 313 315 316 317 319 320 319 319 318 317 317 317 316 317 318 318 317 318 317 315 313 312
Wind_Speed
10 18 23 23 20 18 18 20 22 23 21 19 19 20 20 20 21 20 19 19 19 19 19 19 18 17 17 17 17 18 18 18 16 14 14 14 14 13 13 15 16 15
18 19 19 19 19 20 19 19 20 22 22 20 21 21 20 19 19 18 19 20 20 19 18 18 17 16 16 17 18 17 17 17 15 14 14 13 13 13 13 14 15 15
20 18 18 20 22 22 20 18 18 20 20 20 22 21 20 20 18 18 18 19 19 19 18 17 17 17 17 18 17 16 16 16 15 14 14 13 13 13 13 14 14 13
21 19 21 24 24 22 21 19 19 21 21 21 22 22 21 21 19 19 18 18 19 18 18 18 17 17 18 17 16 16 15 15 15 13 13 13 13 13 13 13 13 12
20 19 23 26 24 22 21 20 21 22 22 21 22 22 21 22 21 19 20 18 19 18 19 19 18 17 17 17 16 16 16 14 13 12 12 13 12 13 14 13 12 12
20 20 21 23 23 22 20 20 22 23 22 22 23 22 22 22 22 19 20 20 19 19 19 18 18 17 17 17 16 16 15 14 13 12 12 13 13 13 14 13 13 12
21 22 21 21 22 21 20 20 23 23 22 21 22 21 21 23 21 19 20 20 19 19 19 18 17 17 16 17 16 15 14 13 13 13 13 13 13 13 13 13 13 13
23 24 23 21 21 22 22 20 22 24 23 21 21 21 21 23 21 19 21 20 18 18 18 17 17 16 16 16 15 14 14 14 14 14 14 14 13 13 13 13 13 13
24 23 21 19 22 25 24 20 21 24 24 24 24 23 23 22 19 20 21 20 19 18 17 16 16 15 15 16 15 15 15 16 15 14 14 14 14 13 13 13 13 12
23 21 19 19 22 25 24 22 23 25 26 26 25 24 24 21 19 20 22 21 20 20 18 17 16 16 16 16 15 15 15 16 14 13 13 13 13 12 12 12 12 11
21 19 17 19 22 24 24 24 25 25 26 27 26 24 23 21 21 22 22 21 21 21 20 18 17 17 17 16 16 15 14 14 14 13 12 11 11 11 10 10 10 10
18 16 16 18 22 24 25 25 25 25 26 27 26 24 22 22 23 23 22 21 21 21 20 19 18 17 16 15 15 15 14 14 13 12 11 10 10 10 10 10 10 9
17 17 16 19 21 22 22 23 24 25 27 27 26 25 24 25 24 23 23 22 21 21 20 20 19 17 15 15 15 15 14 13 13 12 11 10 10 10 10 9 9 8
16 17 16 17 19 20 20 21 23 26 28 28 27 27 26 27 25 24 24 23 21 21 21 20 19 17 16 15 15 14 13 13 13 13 13 12 11 10 10 8 7 7
14 15 16 17 20 23 24 24 26 28 28 28 28 28 27 26 25 25 24 23 21 21 20 19 18 17 15 15 14 13 12 12 13 14 14 13 12 11 10 9 9 10
13 14 17 18 22 26 26 27 29 29 29 27 27 29 28 26 25 25 23 22 21 20 19 18 17 16 15 15 14 13 12 13 14 15 15 14 13 13 12 12 13 13
13 15 18 21 24 27 28 29 31 30 29 27 25 28 29 27 25 25 23 22 20 19 19 18 17 16 15 14 14 13 12 13 14 15 16 15 14 15 15 16 17 17
13 15 20 23 24 26 27 30 32 30 28 25 25 28 29 27 26 26 23 21 20 19 19 19 19 17 15 14 15 15 13 13 14 15 16 16 16 17 19 19 20 19
12 17 23 24 24 25 26 28 29 27 26 26 28 30 30 28 28 26 24 22 21 20 19 19 19 19 17 15 15 15 15 14 15 15 15 17 18 20 21 20 20 18
8 17 24 25 24 24 25 25 24 24 25 28 32 32 30 29 28 26 25 23 22 21 20 20 19 18 17 16 15 14 15 16 16 17 18 20 21 22 21 20 18 17
3 11 19 24 25 25 24 23 23 24 24 27 31 32 31 31 29 28 27 25 24 24 23 21 20 18 16 15 15 15 16 17 18 20 21 22 22 21 20 19 18 16
9 10 13 21 27 27 26 24 24 24 23 24 28 31 31 32 31 29 29 28 26 25 25 23 21 20 18 17 17 17 18 19 21 22 23 22 21 19 18 18 16 15
13 14 15 20 26 28 27 26 26 25 24 25 28 30 31 32 31 29 28 28 26 25 25 25 23 21 20 19 18 18 19 22 23 23 21 20 18 17 17 16 14 13
16 18 17 19 23 25 26 26 26 26 26 27 29 30 31 31 30 28 27 26 26 24 24 24 22 21 20 20 20 19 20 22 22 20 18 16 14 14 14 14 13 11
20 20 21 20 21 22 25 27 27 27 26 26 27 30 31 30 29 28 26 25 24 23 22 22 21 19 18 19 19 18 18 19 18 18 19 18 15 14 14 13 13 12
23 22 22 23 24 24 26 28 28 29 28 27 26 29 32 32 30 29 27 25 23 22 21 21 19 17 17 17 17 16 16 17 17 18 19 18 17 16 15 14 13 12
Wind_Direction
234 230 229 228 221 213 215 217 213 212 217 225 226 222 215 209 207 208 208 206 202 197 193 190 191 193 196 200 202 202 204 205 204 205 209 212 214 213 214 213 214 218
240 228 223 224 223 221 223 224 219 214 210 212 219 220 215 214 218 215 206 199 196 191 189 190 191 195 198 197 198 200 203 205 204 206 208 213 217 216 215 215 214 219
242 228 222 227 228 227 225 221 221 219 211 207 213 216 209 205 216 222 206 191 189 187 188 193 194 197 200 196 195 201 203 204 205 207 210 213 218 218 216 216 215 217
237 227 227 231 231 230 227 219 216 213 207 207 210 209 202 193 199 217 212 188 183 187 189 194 197 197 199 198 199 203 204 207 207 208 211 212 216 219 215 213 213 213
237 225 225 230 231 230 229 222 213 206 203 204 203 199 197 189 187 207 218 198 183 186 188 191 196 197 199 201 202 204 205 206 207 208 211 210 211 214 212 211 212 212
247 235 226 227 227 225 226 221 209 202 201 201 198 195 194 189 184 199 218 206 188 187 187 186 190 193 197 202 204 206 207 204 203 204 205 207 208 210 211 213 214 215
243 238 231 225 220 219 221 216 207 203 200 196 195 195 192 189 184 191 208 206 194 191 189 185 186 188 191 197 199 203 205 203 201 202 202 205 208 210 210 212 214 214
236 237 234 223 216 218 218 213 207 202 196 190 190 191 189 187 182 185 200 204 198 195 191 188 191 191 190 192 193 197 199 199 199 199 203 205 208 211 209 208 212 212
237 237 231 215 212 215 213 210 206 199 193 188 186 187 189 187 180 185 199 203 198 197 195 193 195 196 196 195 195 196 195 194 195 197 201 203 205 209 207 208 211 210
231 226 216 206 208 209 206 205 202 196 192 189 186 188 190 185 179 186 195 197 196 197 197 196 198 200 200 198 197 198 194 193 194 195 198 202 203 203 203 207 208 205
225 216 204 203 209 206 201 200 196 192 191 189 187 189 187 180 179 186 191 193 196 198 196 197 199 199 197 196 197 198 196 195 194 194 197 201 199 196 198 202 205 207
230 220 208 208 214 209 198 194 194 191 188 185 185 185 181 179 182 188 193 195 195 195 195 195 195 195 195 196 197 196 194 195 196 195 198 201 195 191 196 199 203 207
236 230 218 211 215 212 197 190 192 189 183 181 181 179 178 180 184 189 193 192 189 189 191 191 191 192 194 196 196 196 196 197 200 200 201 202 197 193 197 201 205 204
244 239 225 209 207 205 192 187 191 186 180 179 178 176 177 180 183 188 188 185 183 184 186 188 191 193 194 196 197 198 200 199 198 197 196 197 196 194 195 194 190 182
250 237 222 206 196 190 184 185 187 184 180 179 175 174 178 182 183 186 186 182 181 182 183 186 190 190 189 189 191 192 194 192 189 189 190 191 188 182 177 169 159 157
251 232 215 201 187 180 179 182 183 180 179 179 176 177 182 184 183 184 184 182 180 179 181 182 182 182 180 180 182 184 185 186 185 185 185 184 178 167 158 152 146 142
243 224 201 188 179 173 174 180 180 177 178 180 178 179 184 184 183 182 181 181 179 177 176 175 173 172 172 175 179 180 181 182 181 179 177 175 170 158 148 144 140 134
233 209 182 179 178 170 169 174 174 175 180 180 173 175 180 181 180 180 178 177 176 174 171 169 167 165 165 170 175 178 182 179 174 172 170 167 162 153 146 144 141 136
217 188 170 173 175 168 166 169 169 173 179 175 168 171 174 172 172 172 170 170 170 168 165 163 161 159 159 163 168 176 184 180 170 166 163 159 157 153 150 148 145 142
205 178 167 165 165 162 162 163 163 167 170 167 165 166 165 162 161 160 157 158 160 159 157 155 156 157 158 160 162 170 179 177 169 164 159 156 156 156 154 152 150 149
138 162 157 152 151 152 153 152 153 156 157 156 157 159 158 155 152 150 149 147 148 150 149 147 148 150 154 158 162 166 170 169 164 158 154 152 153 154 153 150 148 146
90 116 126 132 136 139 139 139 142 145 147 147 145 145 144 142 141 141 142 141 140 142 143 140 138 142 146 151 158 164 164 161 156 153 150 148 147 146 144 141 140 141
81 101 103 114 123 126 128 132 135 136 138 139 136 132 130 131 132 131 132 136 139 140 139 137 135 137 140 143 150 158 160 156 152 148 142 139 136 134 134 135 137 140
71 97 100 102 112 118 122 127 130 130 131 132 130 127 124 123 125 125 124 128 134 137 138 138 137 138 141 144 148 154 156 152 146 140 133 130 126 125 128 132 134 135
64 88 100 102 106 112 119 122 124 125 126 125 121 121 120 119 119 119 116 116 122 127 132 135 137 141 147 149 150 153 153 150 147 143 138 137 138 137 134 131 131 131
62 75 89 99 104 108 111 114 115 116 117 113 107 108 113 115 114 113 109 107 110 116 122 128 134 141 148 152 151 151 151 152 151 148 143 141 144 146 143 137 133 131